一网星座-0062星 (ONEWEB-0062 )

导读 | 星芒AI

ONEWEB-0062 是 OneWeb 卫星互联网星座计划中的一颗低轨通信卫星。该卫星由 OneWeb 公司部署,旨在为全球提供高速、低延迟的互联网服务,尤其关注偏远和网络覆盖不足的地区。作为 OneWeb 第二批卫星的一部分,ONEWEB-0062 采用先进通信技术,支持 Ku 和 Ka 频段,具备高带宽和高可靠性。该卫星于 2022 年发射,是实现 OneWeb 全球宽带愿景的重要组成部分。

基本信息
目录编号:
45163
目录名称:
ONEWEB-0062
国际标识:
2020-008AJ
轨道中心:
EARTH
卫星名称:
一网星座-0062星
卫星全名:
一网星座-0062星 (ONEWEB-0062 )
卫星状态:
在轨 (已飞行2081 天)
发射日期:
2020-02-06 UTC
国别 :
英国 (GB)
星等 :
--
轨道信息
数据来源 国际轨道数据
星历时间: 2025-10-18T06:48:51+0800
7小时前
查看轨道信息
半长轴: 7599.815km
偏心率: 0.0001787
轨道倾角: 87.876°
近地点辐角 99.356°
升交点赤经 84.555°
平近点角 260.777°
近地点: 1220.321km
远地点: 1223.039km
周期: 109.892分钟
每日圈数: 13.10383
详细信息
平衡模式:
三轴稳定
覆盖范围:
全球
运营商:
一网卫星公司
运营商所在国:
英国
制造商(研发单位):
一网卫星公司
制造商所在国:
英国
使用方式:
暂无
卫星简介
OneWeb卫星网络由648颗重约125公斤的微型卫星组成,运行在1200公里的轨道上。 每颗卫星都能够提供至少每秒8千兆位的吞吐量,以使用其高吞吐量的Ku频段有效载荷为家庭和移动平台提供互联网接入。该卫星仍在工作。
2D轨道图
3D轨道图
轨道高度分析图
轨道倾角分析图
轨道综合分析图
查看轨道综合分析图